Weather reports worldwide

Advertisment
St-Etienne Boutheon, France (7475): temperature & dewpoint: 13.03.2019 10:00:00 - 19.03.2019 10:00:00 (CET)St-Etienne Boutheon, France (7475): temperature 5cm: 13.03.2019 10:00:00 - 19.03.2019 10:00:00 (CET)St-Etienne Boutheon, France (7475): temperature -20cm & temperature -100cm: 13.03.2019 10:00:00 - 19.03.2019 10:00:00 (CET)St-Etienne Boutheon, France (7475): wind speed & gusts: 13.03.2019 10:00:00 - 19.03.2019 10:00:00 (CET)St-Etienne Boutheon, France (7475): wind direction: 13.03.2019 10:00:00 - 19.03.2019 10:00:00 (CET)St-Etienne Boutheon, France (7475): reduced air pressure: 13.03.2019 10:00:00 - 19.03.2019 10:00:00 (CET)St-Etienne Boutheon, France (7475): visibility: 13.03.2019 10:00:00 - 19.03.2019 10:00:00 (CET)St-Etienne Boutheon, France (7475): sunshine duration: 13.03.2019 10:00:00 - 19.03.2019 10:00:00 (CET)St-Etienne Boutheon, France (7475): precipitation: 13.03.2019 10:00:00 - 19.03.2019 10:00:00 (CET)
Date & Time tt [°C] td [°C] tt 5cm [°C] tt -20cm [°C] tt -100cm [°C] ff [km/h] ff [kn] fx [km/h] fx [kn] dd ppp [hPa] vv [km] sd [min] rr [mm]
19.03.2019 10:00:00 - - - - - - - - - - - - - -
19.03.2019 09:00:00 4,3 2,5 4,4 7,2 8,9 13 7 23 12 N 1027,1 20 0 0,0
19.03.2019 08:00:00 3,5 2,2 1,7 7,3 8,9 6 4 16 8 N 1026,7 19 0 0,0
19.03.2019 07:00:00 2,5 1,3 0,8 7,4 8,9 4 2 12 7 NE 1026,3 26 0 0,0
19.03.2019 06:00:00 3,1 1,8 1,6 7,5 8,9 9 5 16 8 N 1025,8 35 0 0,0
19.03.2019 05:00:00 2,9 1,7 1,9 7,7 8,9 9 5 16 9 N 1025,5 32 0 0,0
19.03.2019 04:00:00 2,5 1,3 0,5 7,8 8,9 5 3 9 5 NW 1025,3 27 0 0,0
19.03.2019 03:00:00 2,0 1,0 -0,5 8,0 8,9 3 2 9 5 SE 1025,4 16 0 0,0
19.03.2019 02:00:00 2,4 1,1 0,1 8,1 8,9 2 1 12 7 ENE 1025,5 32 0 0,0
19.03.2019 01:00:00 3,6 1,6 2,7 8,3 8,9 8 4 11 6 N 1025,3 38 0 0,0
19.03.2019 00:00:00 3,3 1,5 1,6 8,5 8,9 5 3 9 5 WNW 1025,7 31 0 0,0
18.03.2019 23:00:00 4,2 1,6 2,1 8,6 8,9 6 3 13 7 WNW 1025,3 28 0 0,0
18.03.2019 22:00:00 3,7 1,7 0,9 8,8 8,9 6 3 10 5 ENE 1025,6 31 0 0,0
18.03.2019 21:00:00 4,4 2,3 2,5 8,9 8,9 3 1 6 4 WSW 1025,3 59 0 0,0
18.03.2019 20:00:00 4,1 1,5 1,9 9,0 8,9 5 3 16 9 SE 1025,0 59 0 0,0
18.03.2019 19:00:00 5,9 1,6 5,4 9,0 8,9 11 6 21 11 WNW 1024,5 60 2 0,0
18.03.2019 18:00:00 7,3 1,6 7,0 8,9 8,9 10 5 23 12 NNW 1023,8 60 22 0,0
18.03.2019 17:00:00 7,4 2,7 7,1 8,8 8,9 15 8 49 27 NNE 1023,4 15 34 0,2
18.03.2019 16:00:00 7,8 2,0 7,8 8,6 8,9 19 10 33 18 N 1023,2 31 24 0,2
18.03.2019 15:00:00 9,0 1,9 10,2 8,3 8,8 17 9 33 18 N 1023,1 60 28 0,0
18.03.2019 14:00:00 7,3 3,3 5,5 8,1 8,9 16 8 32 17 NNE 1023,9 35 7 0,8
18.03.2019 13:00:00 6,5 1,6 8,2 7,9 8,9 11 6 27 14 N 1024,5 20 10 0,0
18.03.2019 12:00:00 5,6 3,1 5,9 7,8 8,9 13 7 31 17 NNW 1024,9 59 0 0,2
18.03.2019 11:00:00 6,1 2,4 6,4 7,7 8,9 11 6 22 12 NNW 1024,6 42 0 0,0
18.03.2019 10:00:00 5,7 0,0 8,4 7,6 8,9 8 5 20 11 N 1024,1 58 25 0,0
18.03.2019 09:00:00 5,0 -0,2 4,4 7,7 8,8 6 4 11 6 NNE 1024,0 60 8 0,0
18.03.2019 08:00:00 3,9 0,2 2,8 7,7 8,8 9 5 14 8 N 1023,5 60 0 0,0
18.03.2019 07:00:00 3,6 0,1 2,7 7,8 8,8 10 5 16 8 N 1023,1 60 0 0,0
18.03.2019 06:00:00 3,8 -0,4 3,0 7,9 8,8 9 5 19 10 NNW 1022,8 60 0 0,0
18.03.2019 05:00:00 3,9 0,2 3,4 8,0 8,8 8 4 26 14 N 1022,3 60 0 0,0
18.03.2019 04:00:00 4,2 0,0 3,9 8,2 8,8 13 7 30 16 NW 1021,6 60 0 0,0
18.03.2019 03:00:00 4,4 -0,2 2,5 8,4 8,8 17 9 36 20 NNW 1021,7 60 0 0,0
18.03.2019 02:00:00 3,7 -0,7 -0,4 8,6 8,8 8 4 13 7 SSW 1021,2 60 0 0,0
18.03.2019 01:00:00 1,4 -1,3 -1,0 8,9 8,8 4 2 8 4 E 1022,0 51 0 0,0
18.03.2019 00:00:00 0,6 -2,0 -2,0 9,2 8,8 5 3 11 6 ESE 1022,3 60 0 0,0
17.03.2019 23:00:00 2,7 -1,7 -1,0 9,5 8,8 4 2 14 7 SSE 1021,9 60 0 0,0
17.03.2019 22:00:00 3,8 -2,0 -0,8 9,7 8,8 3 2 24 13 NNW 1021,3 60 0 0,0
17.03.2019 21:00:00 6,1 -1,3 2,9 9,9 8,8 15 8 30 16 NW 1020,5 60 0 0,0
17.03.2019 20:00:00 5,3 0,1 1,3 10,1 8,8 6 4 10 5 NE 1019,6 60 0 0,0
17.03.2019 19:00:00 6,2 0,7 2,9 10,1 8,8 7 4 12 6 NNE 1018,7 60 7 0,0
17.03.2019 18:00:00 7,7 2,6 7,5 10,1 8,8 5 3 45 25 WNW 1017,6 60 3 0,0
17.03.2019 17:00:00 10,2 3,5 10,0 10,1 8,8 10 5 30 16 N 1016,4 60 46 0,0
17.03.2019 16:00:00 7,8 3,6 6,8 10,0 8,8 19 10 40 22 N 1016,6 60 5 0,0
17.03.2019 15:00:00 7,1 4,9 6,9 9,8 8,8 22 12 55 30 N 1016,0 50 0 1,6
17.03.2019 14:00:00 14,1 4,7 13,9 9,4 8,7 18 10 41 22 W 1012,6 19 10 0,0
17.03.2019 13:00:00 16,3 5,0 17,3 9,0 8,7 22 12 48 26 SW 1012,1 54 55 0,0
17.03.2019 12:00:00 15,2 3,6 17,4 8,7 8,7 26 14 48 26 WSW 1013,0 60 60 0,0
17.03.2019 11:00:00 15,3 1,4 18,7 8,5 8,7 8 4 24 13 SSW 1012,6 60 60 0,0
17.03.2019 10:00:00 13,9 -0,9 12,2 8,5 8,7 8 4 19 10 N 1012,4 54 51 0,0
17.03.2019 09:00:00 10,9 -1,2 9,8 8,6 8,7 5 3 27 14 N 1011,6 60 7 0,0
17.03.2019 08:00:00 7,9 0,4 4,1 8,8 8,7 11 6 20 11 S 1011,3 59 34 0,0
17.03.2019 07:00:00 9,3 -4,3 -0,7 9,0 8,7 12 6 23 12 SSW 1010,6 60 0 0,0
17.03.2019 06:00:00 4,0 -3,3 -1,5 9,2 8,7 6 3 8 4 SSE 1011,9 60 0 0,0
17.03.2019 05:00:00 5,2 -4,1 0,7 9,5 8,7 2 1 13 7 WSW 1011,8 60 0 0,0
17.03.2019 04:00:00 10,8 -5,3 7,5 9,7 8,7 8 4 25 13 WSW 1011,1 60 0 0,0
17.03.2019 03:00:00 13,8 -5,4 11,0 9,9 8,6 13 7 39 21 SW 1011,4 60 0 0,0
17.03.2019 02:00:00 13,0 -3,8 3,2 10,2 8,6 22 12 32 17 SSW 1012,2 60 0 0,0
17.03.2019 01:00:00 5,9 0,4 0,2 10,5 8,7 16 9 21 12 S 1014,1 60 0 0,0
17.03.2019 00:00:00 6,1 0,8 -0,2 10,8 8,6 8 5 15 8 S 1014,5 60 0 0,0
16.03.2019 23:00:00 7,3 2,0 2,0 11,1 8,6 2 1 11 6 ESE 1014,2 60 0 0,0
16.03.2019 22:00:00 8,2 1,6 2,9 11,3 8,6 8 5 16 8 SSE 1014,0 60 0 0,0
16.03.2019 21:00:00 9,7 3,6 5,3 11,5 8,6 11 6 27 15 S 1014,0 60 0 0,0
16.03.2019 20:00:00 12,0 5,8 9,3 11,6 8,6 19 11 26 14 S 1013,7 60 0 0,0
16.03.2019 19:00:00 13,6 5,7 11,3 11,5 8,6 16 9 25 13 S 1013,7 19 22 0,0
16.03.2019 18:00:00 16,8 5,7 15,1 11,3 8,6 14 8 30 16 S 1013,7 60 39 0,0
16.03.2019 17:00:00 21,1 1,9 24,2 10,9 8,6 18 10 32 17 S 1013,5 60 60 0,0
16.03.2019 16:00:00 21,4 3,6 25,6 10,4 8,6 14 7 25 14 S 1014,2 60 60 0,0
16.03.2019 15:00:00 20,0 3,6 24,0 9,8 8,6 15 8 29 15 S 1015,5 60 60 0,0
16.03.2019 14:00:00 18,5 4,6 22,9 9,2 8,6 14 7 25 13 SE 1016,9 60 60 0,0
16.03.2019 13:00:00 16,6 5,8 20,7 8,6 8,6 10 5 23 12 SSE 1018,4 37 60 0,0
16.03.2019 12:00:00 14,7 5,5 19,9 8,2 8,6 8 4 20 11 SE 1019,6 44 60 0,0
16.03.2019 11:00:00 13,3 5,7 17,9 8,0 8,6 9 5 20 11 SSW 1020,6 58 60 0,0
16.03.2019 10:00:00 11,8 5,6 14,9 7,9 8,6 9 5 16 9 S 1021,6 60 60 0,0
16.03.2019 09:00:00 9,5 5,7 6,7 8,1 8,6 11 6 15 8 S 1022,6 46 60 0,0
16.03.2019 08:00:00 3,7 3,4 -1,4 8,3 8,6 3 2 8 4 S 1023,8 15 28 0,0
16.03.2019 07:00:00 0,8 0,2 -1,5 8,5 8,6 5 3 9 5 SSW 1024,7 3,2 0 0,0
16.03.2019 06:00:00 4,3 3,9 0,2 8,7 8,6 4 2 11 6 S 1024,0 14 0 0,0
16.03.2019 05:00:00 5,1 3,8 1,7 8,8 8,5 7 4 10 5 S 1023,9 20 0 0,0
16.03.2019 04:00:00 6,8 5,6 5,5 8,9 8,6 7 4 10 5 S 1023,7 49 0 0,0
16.03.2019 03:00:00 7,1 5,7 5,9 8,9 8,6 8 4 10 5 S 1024,3 60 0 0,0
16.03.2019 02:00:00 7,9 6,8 6,7 9,0 8,6 9 5 11 6 S 1024,6 60 0 0,0
16.03.2019 01:00:00 8,6 7,4 7,5 9,1 8,6 7 4 10 5 SSW 1025,0 60 0 0,0
16.03.2019 00:00:00 8,5 7,3 7,7 9,1 8,6 6 3 9 5 SSE 1025,5 60 0 0,2
15.03.2019 23:00:00 8,9 7,2 8,2 9,2 8,6 6 4 12 7 NNE 1025,4 60 0 0,0
15.03.2019 22:00:00 9,7 6,4 8,3 9,3 8,6 5 3 10 5 ESE 1025,1 60 0 0,0
15.03.2019 21:00:00 10,0 6,2 8,3 9,3 8,6 4 2 7 4 ESE 1024,7 60 0 0,0
15.03.2019 20:00:00 10,7 5,9 9,9 9,4 8,6 5 3 23 12 NW 1024,3 60 0 0,0
15.03.2019 19:00:00 11,4 5,5 10,9 9,4 8,5 11 6 28 15 NNW 1023,8 60 0 0,0
15.03.2019 18:00:00 11,1 6,2 11,0 9,4 8,6 13 7 49 26 N 1023,1 60 0 0,0
15.03.2019 17:00:00 12,7 5,4 12,4 9,3 8,6 16 9 31 17 NNW 1022,4 60 0 0,0
15.03.2019 16:00:00 13,2 5,8 13,0 9,1 8,6 16 9 34 18 NNW 1022,1 60 0 0,0
15.03.2019 15:00:00 14,0 5,9 13,6 8,9 8,6 20 11 41 22 NW 1021,4 60 4 0,0
15.03.2019 14:00:00 12,6 8,1 13,5 8,7 8,6 19 10 43 23 N 1021,8 20 9 0,0
15.03.2019 13:00:00 14,0 6,6 13,9 8,4 8,6 16 9 36 19 NNW 1022,2 60 0 0,0
15.03.2019 12:00:00 13,3 6,6 14,5 8,1 8,6 17 9 32 17 NNW 1022,7 60 0 0,0
15.03.2019 11:00:00 12,8 8,3 12,3 8,0 8,6 12 6 22 12 NW 1022,6 43 13 0,0
15.03.2019 10:00:00 11,7 8,0 9,4 7,9 8,6 7 4 14 8 W 1022,7 60 0 0,0
15.03.2019 09:00:00 9,3 7,6 8,2 7,9 8,6 7 4 10 6 S 1023,0 17 0 0,0
15.03.2019 08:00:00 8,9 6,9 7,7 7,9 8,6 8 4 12 6 S 1022,5 60 0 0,0
15.03.2019 07:00:00 8,4 6,9 7,4 7,9 8,6 7 4 16 8 SE 1021,9 60 0 0,0
15.03.2019 06:00:00 8,5 6,6 7,3 7,9 8,6 11 6 17 9 SSE 1021,3 51 0 0,2
15.03.2019 05:00:00 8,2 6,3 7,3 7,9 8,6 11 6 16 9 SE 1020,9 60 0 0,0
15.03.2019 04:00:00 8,3 6,3 7,1 7,9 8,6 10 6 15 8 SSE 1020,5 60 0 0,0
15.03.2019 03:00:00 7,9 6,2 7,0 7,9 8,6 10 5 15 8 ESE 1020,4 12 0 1,0
15.03.2019 02:00:00 8,0 5,6 7,4 8,0 8,6 10 5 16 9 SSE 1020,9 60 0 0,0
15.03.2019 01:00:00 8,2 5,7 7,0 8,0 8,6 11 6 16 9 SSE 1020,5 60 0 0,0
15.03.2019 00:00:00 8,4 5,1 7,5 8,0 8,6 5 3 18 10 SE 1020,3 60 0 0,0
14.03.2019 23:00:00 8,2 5,1 7,4 8,0 8,6 9 5 18 10 SE 1020,3 60 0 0,0
14.03.2019 22:00:00 7,9 5,4 6,9 8,1 8,6 8 5 15 8 SE 1019,7 60 0 0,0
14.03.2019 21:00:00 7,9 5,2 6,8 8,1 8,6 6 3 10 5 E 1019,4 60 0 0,0
14.03.2019 20:00:00 8,5 4,7 7,1 8,1 8,6 3 2 15 8 WNW 1019,0 50 0 0,0
14.03.2019 19:00:00 9,2 4,2 7,1 8,1 8,6 9 5 23 12 WSW 1018,0 20 0 0,2
14.03.2019 18:00:00 9,6 3,3 8,7 8,1 8,6 9 5 31 17 SW 1017,1 60 0 0,0
14.03.2019 17:00:00 9,5 2,8 9,3 8,1 8,6 9 5 39 21 WSW 1017,8 60 0 0,0
14.03.2019 16:00:00 9,8 2,4 9,4 8,0 8,6 16 9 32 17 WSW 1018,0 60 0 0,0
14.03.2019 15:00:00 9,7 2,3 9,4 7,8 8,6 15 8 34 18 WSW 1018,6 60 0 0,0
14.03.2019 14:00:00 8,9 2,2 9,6 7,7 8,6 16 9 34 18 SSW 1019,9 60 0 0,0
14.03.2019 13:00:00 8,8 1,9 7,6 7,6 8,6 12 6 27 14 WSW 1021,8 60 0 0,0
14.03.2019 12:00:00 8,5 1,4 9,2 7,4 8,6 14 8 30 16 WSW 1022,6 55 0 0,0
14.03.2019 11:00:00 7,7 1,1 7,9 7,3 8,6 8 4 18 10 WSW 1023,3 20 0 0,0
14.03.2019 10:00:00 7,4 2,1 7,2 7,3 8,6 4 2 12 7 SW 1023,9 19 0 0,0
14.03.2019 09:00:00 6,5 2,4 4,8 7,3 8,6 6 4 11 6 WSW 1024,0 60 0 0,0
14.03.2019 08:00:00 4,6 2,5 2,8 7,4 8,6 6 4 10 5 SSE 1024,0 60 0 0,0
14.03.2019 07:00:00 4,0 2,0 2,4 7,5 8,6 4 2 9 5 WSW 1024,4 55 0 0,0
14.03.2019 06:00:00 3,5 2,0 2,5 7,6 8,6 6 3 9 5 S 1024,3 60 0 0,0
14.03.2019 05:00:00 3,6 2,3 2,8 7,7 8,6 4 2 13 7 SE 1024,5 59 0 0,0
14.03.2019 04:00:00 4,0 2,2 3,1 7,8 8,6 8 4 26 14 W 1024,8 60 0 0,0
14.03.2019 03:00:00 4,3 1,7 3,2 7,9 8,6 19 10 52 28 NW 1024,9 60 0 0,6
14.03.2019 02:00:00 5,1 1,8 3,3 8,0 8,6 10 6 37 20 NNW 1024,9 17 0 0,0
14.03.2019 01:00:00 4,8 1,5 3,4 8,1 8,6 9 5 54 29 NW 1024,5 55 0 0,2
14.03.2019 00:00:00 6,4 0,5 5,6 8,2 8,6 7 4 15 8 WNW 1023,5 59 0 0,0
13.03.2019 23:00:00 6,6 0,1 3,7 8,4 8,6 8 4 15 8 NNW 1023,4 45 0 0,0
13.03.2019 22:00:00 5,8 -0,5 2,5 8,5 8,6 4 2 9 5 WSW 1022,8 41 0 0,0
13.03.2019 21:00:00 5,8 -0,9 2,5 8,6 8,6 3 2 16 9 NW 1022,5 48 0 0,0
13.03.2019 20:00:00 7,1 -0,1 6,0 8,7 8,6 7 4 13 7 WNW 1021,6 60 0 0,0
13.03.2019 19:00:00 7,0 0,6 6,2 8,7 8,6 6 3 14 8 NW 1021,0 60 13 0,0
13.03.2019 18:00:00 7,5 0,7 7,4 8,7 8,6 8 4 35 19 NW 1020,7 60 0 0,0
13.03.2019 17:00:00 7,9 1,1 8,1 8,5 8,5 19 10 37 20 N 1020,6 58 4 0,0
13.03.2019 16:00:00 9,9 0,5 8,6 8,4 8,6 20 11 49 26 NW 1019,7 60 37 0,0
13.03.2019 15:00:00 8,6 1,7 6,0 8,1 8,6 14 8 41 22 NNW 1019,6 60 4 0,2
13.03.2019 14:00:00 9,4 -0,8 10,5 7,9 8,6 19 10 42 23 NW 1019,4 56 25 0,0
13.03.2019 13:00:00 9,5 -0,1 10,4 7,7 8,6 13 7 33 18 W 1020,1 55 18 0,0
13.03.2019 12:00:00 8,4 -0,4 7,9 7,5 8,6 15 8 29 16 WSW 1020,9 55 11 0,0
13.03.2019 11:00:00 6,9 -0,8 7,6 7,4 8,6 7 4 18 10 W 1021,8 60 3 0,0
13.03.2019 10:00:00 6,4 0,3 4,4 7,5 8,6 5 3 12 7 W 1022,4 60 6 0,0

tt = temperature
td = dewpoint
tt 5cm = temperature 5cm
tt -20cm = temperature -20cm
tt -100cm = temperature -100cm
ff = wind speed
fx = gusts
dd = wind direction
ppp = reduced air pressure
vv = visibility
sd = sunshine duration
rr = precipitation

Next stations